| time (UTC) | temp F | wind direction | speed knots | gust knots | rain 1hr in | rain 24hr in | rain mn in | humidity % | barometer mb |
| 20260503211900 | 54 | 207 | 1.7 | 3.5 | 0.00 | 0.00 | 0.00 | 92 | 982.8 |
| 20260503211359 | 54 | 205 | 1.7 | 3.5 | 0.00 | 0.00 | 0.00 | 91 | 982.8 |
| 20260503210859 | 54 | 192 | 1.7 | 3.5 | 0.00 | 0.00 | 0.00 | 91 | 982.7 |
| 20260503210359 | 54 | 201 | 2.6 | 3.5 | 0.00 | 0.00 | 0.00 | 91 | 982.7 |
| 20260503205853 | 54 | 205 | 2.6 | 3.5 | 0.00 | 0.00 | 0.00 | 91 | 982.7 |
| 20260503205353 | 54 | 194 | 1.7 | 4.3 | 0.00 | 0.00 | 0.00 | 91 | 982.7 |
| 20260503204353 | 54 | 226 | 2.6 | 4.3 | 0.00 | 0.00 | 0.00 | 91 | 982.8 |
| 20260503203854 | 54 | 191 | 2.6 | 4.3 | 0.00 | 0.00 | 0.00 | 90 | 982.8 |
| 20260503203356 | 54 | 233 | 3.5 | 4.3 | 0.00 | 0.00 | 0.00 | 90 | 982.8 |
| 20260503202852 | 54 | 197 | 2.6 | 4.3 | 0.00 | 0.00 | 0.00 | 90 | 982.9 |
| 20260503202353 | 54 | 201 | 2.6 | 5.2 | 0.00 | 0.00 | 0.00 | 90 | 982.8 |
| 20260503201853 | 54 | 211 | 2.6 | 5.2 | 0.00 | 0.00 | 0.00 | 89 | 982.9 |
| 20260503201354 | 55 | 213 | 2.6 | 4.3 | 0.00 | 0.00 | 0.00 | 89 | 982.8 |
| 20260503200854 | 55 | 220 | 2.6 | 4.3 | 0.00 | 0.00 | 0.00 | 89 | 982.8 |
| 20260503200352 | 55 | 207 | 2.6 | 4.3 | 0.00 | 0.00 | 0.00 | 89 | 982.7 |
| 20260503195354 | 56 | 200 | 3.5 | 6.1 | 0.00 | 0.00 | 0.00 | 88 | 982.6 |
| 20260503194854 | 56 | 203 | 4.3 | 7.0 | 0.00 | 0.00 | 0.00 | 88 | 982.6 |
| 20260503194354 | 56 | 231 | 4.3 | 7.0 | 0.00 | 0.00 | 0.00 | 88 | 982.7 |
| 20260503193848 | 56 | 196 | 4.3 | 7.8 | 0.00 | 0.00 | 0.00 | 87 | 982.6 |
| 20260503193348 | 56 | 211 | 4.3 | 7.8 | 0.00 | 0.00 | 0.00 | 87 | 982.5 |
| 20260503192848 | 56 | 216 | 4.3 | 7.8 | 0.00 | 0.00 | 0.00 | 87 | 982.4 |
| 20260503192351 | 56 | 251 | 4.3 | 7.8 | 0.00 | 0.00 | 0.00 | 86 | 982.4 |
| 20260503191348 | 57 | 245 | 4.3 | 8.7 | 0.00 | 0.00 | 0.00 | 85 | 982.2 |
| 20260503190848 | 57 | 214 | 4.3 | 8.7 | 0.00 | 0.00 | 0.00 | 85 | 982.1 |
| 20260503190348 | 57 | 226 | 3.5 | 7.0 | 0.00 | 0.00 | 0.00 | 84 | 982.1 |
| 20260503185848 | 57 | 208 | 3.5 | 7.0 | 0.00 | 0.00 | 0.00 | 84 | 982.1 |
| 20260503185350 | 58 | 235 | 4.3 | 7.8 | 0.00 | 0.00 | 0.00 | 83 | 982.0 |
| 20260503184849 | 58 | 217 | 4.3 | 7.8 | 0.00 | 0.00 | 0.00 | 82 | 981.8 |
| 20260503184351 | 58 | 231 | 4.3 | 7.8 | 0.00 | 0.00 | 0.00 | 82 | 981.9 |
| 20260503183849 | 58 | 210 | 4.3 | 7.8 | 0.00 | 0.00 | 0.00 | 81 | 981.9 |
| 20260503183350 | 59 | 213 | 4.3 | 7.8 | 0.00 | 0.00 | 0.00 | 80 | 981.8 |
| 20260503182851 | 59 | 226 | 4.3 | 8.7 | 0.00 | 0.00 | 0.00 | 80 | 981.7 |
| 20260503182350 | 59 | 216 | 4.3 | 8.7 | 0.00 | 0.00 | 0.00 | 79 | 981.7 |
| 20260503181844 | 60 | 201 | 4.3 | 7.8 | 0.00 | 0.00 | 0.00 | 79 | 981.7 |
| 20260503180844 | 61 | 225 | 4.3 | 7.0 | 0.00 | 0.00 | 0.00 | 77 | 981.7 |
| 20260503180347 | 61 | 225 | 4.3 | 8.7 | 0.00 | 0.00 | 0.00 | 77 | 981.7 |
| 20260503175844 | 62 | 229 | 4.3 | 8.7 | 0.00 | 0.00 | 0.00 | 76 | 981.8 |
| 20260503175344 | 62 | 221 | 5.2 | 8.7 | 0.00 | 0.00 | 0.00 | 76 | 981.7 |
| 20260503174847 | 63 | 218 | 4.3 | 8.7 | 0.00 | 0.00 | 0.00 | 75 | 981.7 |
| 20260503174345 | 63 | 214 | 3.5 | 7.0 | 0.00 | 0.00 | 0.00 | 74 | 981.6 |
| 20260503173844 | 64 | 219 | 3.5 | 6.1 | 0.00 | 0.00 | 0.00 | 73 | 981.5 |
| 20260503173345 | 64 | 214 | 3.5 | 6.1 | 0.00 | 0.00 | 0.00 | 73 | 981.7 |
| 20260503172341 | 65 | 237 | 3.5 | 6.1 | 0.00 | 0.00 | 0.00 | 72 | 981.4 |
| 20260503171843 | 65 | 191 | 3.5 | 6.1 | 0.00 | 0.00 | 0.00 | 71 | 981.4 |
| 20260503171341 | 65 | 247 | 3.5 | 7.0 | 0.00 | 0.00 | 0.00 | 70 | 981.4 |
| 20260503170840 | 66 | 273 | 4.3 | 7.0 | 0.00 | 0.00 | 0.00 | 70 | 981.3 |
| 20260503170339 | 66 | 186 | 5.2 | 9.6 | 0.00 | 0.00 | 0.00 | 69 | 981.5 |
| 20260503150822 | 70 | 275 | 2.6 | 7.8 | 0.00 | 0.00 | 0.00 | 61 | 981.6 |
| 20260503150325 | 70 | 285 | 1.7 | 7.8 | 0.00 | 0.00 | 0.00 | 61 | 981.6 |
| 20260503140314 | 69 | 274 | 4.3 | 11.3 | 0.00 | 0.00 | 0.00 | 62 | 982.6 |
| 20260503131305 | 69 | 304 | 5.2 | 10.4 | 0.00 | 0.00 | 0.00 | 59 | 982.9 |
| 20260503130805 | 69 | 279 | 5.2 | 10.4 | 0.00 | 0.00 | 0.00 | 59 | 983.0 |
| 20260503130306 | 69 | 243 | 4.3 | 10.4 | 0.00 | 0.00 | 0.00 | 59 | 983.0 |
| 20260503110253 | 66 | 34 | 2.6 | 4.3 | 0.00 | 0.00 | 0.00 | 69 | 983.2 |
| 20260503100243 | 65 | 51 | 3.5 | 4.3 | 0.00 | 0.00 | 0.00 | 75 | 983.7 |
| 20260503081205 | 59 | 64 | 2.6 | 4.3 | 0.00 | 0.00 | 0.00 | 85 | 984.0 |
| 20260503080701 | 59 | 38 | 2.6 | 3.5 | 0.00 | 0.00 | 0.00 | 85 | 984.0 |
| 20260503080202 | 59 | 74 | 2.6 | 3.5 | 0.00 | 0.00 | 0.00 | 85 | 984.0 |
| 20260503072656 | 58 | 58 | 1.7 | 3.5 | 0.00 | 0.00 | 0.00 | 86 | 984.2 |
| 20260503072156 | 58 | 59 | 1.7 | 3.5 | 0.00 | 0.00 | 0.00 | 87 | 984.2 |
| 20260503071656 | 57 | 78 | 1.7 | 2.6 | 0.00 | 0.00 | 0.00 | 88 | 984.1 |
| 20260503070152 | 57 | 44 | 1.7 | 2.6 | 0.00 | 0.00 | 0.00 | 87 | 984.3 |
| 20260503054629 | 55 | 23 | 0.9 | 1.7 | 0.00 | 0.00 | 0.00 | 90 | 984.2 |
| 20260503054127 | 55 | 57 | 0.9 | 1.7 | 0.00 | 0.00 | 0.00 | 91 | 984.2 |
| 20260503053621 | 54 | 25 | 0.9 | 1.7 | 0.00 | 0.00 | 0.00 | 90 | 984.2 |
| 20260503053117 | 54 | 355 | 0.0 | 0.9 | 0.00 | 0.00 | 0.00 | 91 | 984.2 |
| 20260503052621 | 54 | 345 | 0.0 | 1.7 | 0.00 | 0.00 | 0.00 | 91 | 984.2 |
| 20260503052116 | 54 | 25 | 0.9 | 1.7 | 0.00 | 0.00 | 0.00 | 92 | 984.1 |
| 20260503051614 | 53 | 0 | 0.9 | 1.7 | 0.00 | 0.00 | 0.00 | 92 | 984.1 |
| 20260503050609 | 53 | 265 | 0.9 | 1.7 | 0.00 | 0.00 | 0.00 | 92 | 984.0 |
| 20260503050109 | 52 | 335 | 0.9 | 1.7 | 0.00 | 0.00 | 0.00 | 93 | 984.1 |
| 20260503045609 | 52 | 299 | 0.0 | 1.7 | 0.00 | 0.00 | 0.00 | 93 | 984.0 |
| 20260503045110 | 51 | 231 | 0.0 | 0.0 | 0.00 | 0.00 | 0.00 | 92 | 984.0 |
| 20260503044609 | 51 | 237 | 0.0 | 0.0 | 0.00 | 0.00 | 0.00 | 92 | 983.9 |
| 20260503044109 | 50 | 237 | 0.0 | 0.0 | 0.00 | 0.00 | 0.00 | 92 | 984.0 |
| 20260503043609 | 49 | 237 | 0.0 | 0.0 | 0.00 | 0.00 | 0.00 | 91 | 984.0 |
| 20260503043105 | 49 | 218 | 0.0 | 0.0 | 0.00 | 0.00 | 0.00 | 93 | 983.9 |
| 20260503042604 | 49 | 207 | 0.0 | 0.0 | 0.00 | 0.00 | 0.00 | 92 | 983.9 |
| 20260503042102 | 49 | 207 | 0.0 | 0.0 | 0.00 | 0.00 | 0.00 | 92 | 983.9 |
| 20260503041603 | 49 | 221 | 0.0 | 0.9 | 0.00 | 0.00 | 0.00 | 93 | 983.8 |
| 20260503040600 | 49 | 212 | 0.0 | 0.9 | 0.00 | 0.00 | 0.00 | 92 | 983.8 |
| 20260503040100 | 49 | 212 | 0.0 | 1.7 | 0.00 | 0.00 | 0.00 | 92 | 983.8 |
| 20260503035558 | 49 | 212 | 0.9 | 1.7 | 0.00 | 0.00 | 0.00 | 92 | 983.9 |
| 20260503035057 | 49 | 240 | 0.0 | 1.7 | 0.00 | 0.00 | 0.00 | 92 | 983.9 |
| 20260503034553 | 49 | 229 | 0.9 | 1.7 | 0.00 | 0.00 | 0.00 | 90 | 983.8 |
| 20260503033554 | 51 | 239 | 0.9 | 1.7 | 0.00 | 0.00 | 0.00 | 92 | 983.9 |
| 20260503033054 | 51 | 243 | 0.9 | 1.7 | 0.00 | 0.00 | 0.00 | 92 | 983.8 |
| 20260503032555 | 51 | 213 | 0.9 | 1.7 | 0.00 | 0.00 | 0.00 | 92 | 983.9 |
| 20260503032107 | 51 | 123 | 0.9 | 0.9 | 0.00 | 0.00 | 0.00 | 93 | 983.9 |
| 20260503031553 | 50 | 166 | 0.9 | 1.7 | 0.00 | 0.00 | 0.00 | 93 | 983.8 |
| 20260503031047 | 50 | 210 | 1.7 | 2.6 | 0.00 | 0.00 | 0.00 | 93 | 983.8 |
| 20260503030544 | 49 | 207 | 1.7 | 2.6 | 0.00 | 0.00 | 0.00 | 92 | 983.9 |
| 20260503030056 | 49 | 209 | 1.7 | 2.6 | 0.00 | 0.00 | 0.00 | 90 | 983.8 |
| 20260503025543 | 49 | 226 | 1.7 | 2.6 | 0.00 | 0.00 | 0.00 | 90 | 983.9 |
| 20260503025045 | 49 | 160 | 0.9 | 2.6 | 0.00 | 0.00 | 0.00 | 90 | 983.9 |
| 20260503024540 | 49 | 214 | 0.0 | 0.9 | 0.00 | 0.00 | 0.00 | 89 | 984.0 |
| 20260503024040 | 49 | 218 | 0.0 | 0.9 | 0.00 | 0.00 | 0.00 | 90 | 983.9 |
| 20260503023539 | 49 | 218 | 0.9 | 1.7 | 0.00 | 0.00 | 0.00 | 89 | 983.8 |
| 20260503023039 | 50 | 218 | 0.0 | 1.7 | 0.00 | 0.00 | 0.00 | 89 | 983.9 |
| 20260503022539 | 51 | 181 | 0.9 | 2.6 | 0.00 | 0.00 | 0.00 | 90 | 983.8 |
| 20260503022035 | 51 | 233 | 1.7 | 2.6 | 0.00 | 0.00 | 0.00 | 91 | 984.0 |
| 20260503021535 | 51 | 229 | 0.9 | 1.7 | 0.00 | 0.00 | 0.00 | 91 | 983.9 |
| 20260503021039 | 51 | 213 | 1.7 | 2.6 | 0.00 | 0.00 | 0.00 | 91 | 983.9 |
| 20260503020535 | 51 | 224 | 1.7 | 2.6 | 0.00 | 0.00 | 0.00 | 91 | 983.8 |
| 20260503020034 | 50 | 206 | 0.9 | 1.7 | 0.00 | 0.00 | 0.00 | 90 | 983.9 |
| 20260503015537 | 50 | 208 | 0.9 | 1.7 | 0.00 | 0.00 | 0.00 | 89 | 983.9 |
| 20260503014537 | 51 | 193 | 0.0 | 1.7 | 0.00 | 0.00 | 0.00 | 89 | 983.9 |
| 20260503014033 | 51 | 220 | 0.0 | 0.0 | 0.00 | 0.00 | 0.00 | 89 | 983.9 |
| 20260503013532 | 51 | 210 | 0.0 | 0.9 | 0.00 | 0.00 | 0.00 | 89 | 983.8 |
| 20260503013032 | 52 | 152 | 0.0 | 1.7 | 0.00 | 0.00 | 0.00 | 89 | 984.0 |
| 20260503012031 | 52 | 227 | 0.9 | 2.6 | 0.00 | 0.00 | 0.00 | 89 | 984.0 |
| 20260503011532 | 52 | 215 | 0.9 | 2.6 | 0.00 | 0.00 | 0.00 | 90 | 984.0 |
| 20260503011033 | 52 | 214 | 0.9 | 2.6 | 0.00 | 0.00 | 0.00 | 89 | 984.1 |
| 20260503010532 | 52 | 207 | 0.9 | 2.6 | 0.00 | 0.00 | 0.00 | 89 | 984.1 |
| 20260503010033 | 52 | 238 | 0.0 | 1.7 | 0.00 | 0.00 | 0.00 | 89 | 984.2 |
| 20260503005532 | 52 | 207 | 0.9 | 1.7 | 0.00 | 0.00 | 0.00 | 89 | 984.2 |
| 20260503005030 | 52 | 236 | 0.9 | 1.7 | 0.00 | 0.00 | 0.00 | 89 | 984.3 |
| 20260503004531 | 52 | 241 | 0.9 | 2.6 | 0.00 | 0.00 | 0.00 | 88 | 984.3 |
| 20260503004033 | 53 | 213 | 0.9 | 2.6 | 0.00 | 0.00 | 0.00 | 88 | 984.3 |
| 20260503003534 | 53 | 217 | 0.9 | 2.6 | 0.00 | 0.00 | 0.00 | 89 | 984.3 |
| 20260503003030 | 52 | 240 | 0.9 | 2.6 | 0.00 | 0.00 | 0.00 | 88 | 984.4 |
| 20260503002532 | 52 | 229 | 0.9 | 2.6 | 0.00 | 0.00 | 0.00 | 88 | 984.4 |
| 20260503002026 | 52 | 215 | 0.9 | 1.7 | 0.00 | 0.00 | 0.00 | 87 | 984.4 |
| 20260503001527 | 52 | 210 | 0.9 | 2.6 | 0.00 | 0.00 | 0.00 | 87 | 984.6 |
| 20260503001028 | 52 | 184 | 1.7 | 2.6 | 0.00 | 0.00 | 0.00 | 87 | 984.6 |
| 20260503000527 | 52 | 227 | 1.7 | 1.7 | 0.00 | 0.00 | 0.00 | 87 | 984.6 |
| 20260503000027 | 52 | 215 | 0.9 | 1.7 | 0.00 | 0.00 | 0.00 | 87 | 984.6 |
| 20260502235028 | 52 | 226 | 0.0 | 1.7 | 0.00 | 0.00 | 0.00 | 86 | 984.7 |
| 20260502234528 | 52 | 213 | 0.0 | 2.6 | 0.00 | 0.00 | 0.00 | 86 | 984.6 |
| 20260502234022 | 52 | 224 | 0.9 | 2.6 | 0.00 | 0.00 | 0.00 | 86 | 984.7 |
| 20260502233520 | 53 | 210 | 0.9 | 2.6 | 0.00 | 0.00 | 0.00 | 85 | 984.6 |
| 20260502233020 | 53 | 217 | 0.9 | 3.5 | 0.00 | 0.00 | 0.00 | 85 | 984.8 |
| 20260502232519 | 53 | 179 | 1.7 | 3.5 | 0.00 | 0.00 | 0.00 | 85 | 984.8 |
| 20260502232022 | 53 | 235 | 2.6 | 5.2 | 0.00 | 0.00 | 0.00 | 85 | 984.8 |
| 20260502231518 | 53 | 193 | 2.6 | 5.2 | 0.00 | 0.00 | 0.00 | 84 | 984.8 |
| 20260502231018 | 53 | 245 | 2.6 | 5.2 | 0.00 | 0.00 | 0.00 | 84 | 984.7 |
| 20260502230533 | 53 | 219 | 2.6 | 5.2 | 0.00 | 0.00 | 0.00 | 83 | 984.8 |
| 20260502230021 | 53 | 191 | 3.5 | 5.2 | 0.00 | 0.00 | 0.00 | 83 | 984.8 |
| 20260502225518 | 53 | 206 | 3.5 | 5.2 | 0.00 | 0.00 | 0.00 | 83 | 984.9 |
| 20260502225018 | 53 | 203 | 3.5 | 5.2 | 0.00 | 0.00 | 0.00 | 82 | 984.9 |
| 20260502224020 | 53 | 212 | 2.6 | 5.2 | 0.00 | 0.00 | 0.00 | 81 | 984.9 |
| 20260502223515 | 54 | 239 | 2.6 | 5.2 | 0.00 | 0.00 | 0.00 | 81 | 984.9 |
| 20260502223013 | 54 | 244 | 2.6 | 7.0 | 0.00 | 0.00 | 0.00 | 80 | 984.8 |
| 20260502222514 | 54 | 212 | 3.5 | 7.0 | 0.00 | 0.00 | 0.00 | 80 | 984.8 |
| 20260502222018 | 54 | 240 | 3.5 | 6.1 | 0.00 | 0.00 | 0.00 | 79 | 984.8 |
| 20260502221515 | 54 | 208 | 3.5 | 6.1 | 0.00 | 0.00 | 0.00 | 79 | 984.8 |
| 20260502221015 | 54 | 210 | 4.3 | 6.1 | 0.00 | 0.00 | 0.00 | 79 | 984.8 |
| 20260502220012 | 55 | 209 | 3.5 | 7.0 | 0.00 | 0.00 | 0.00 | 78 | 984.7 |
| 20260502215512 | 55 | 218 | 4.3 | 7.0 | 0.00 | 0.00 | 0.00 | 77 | 984.8 |
| 20260502215007 | 55 | 204 | 4.3 | 7.0 | 0.00 | 0.00 | 0.00 | 77 | 984.9 |
| 20260502214009 | 55 | 216 | 4.3 | 7.0 | 0.00 | 0.00 | 0.00 | 77 | 984.8 |
| 20260502213507 | 55 | 212 | 5.2 | 7.0 | 0.00 | 0.00 | 0.00 | 77 | 984.9 |
| 20260502213009 | 55 | 208 | 5.2 | 6.1 | 0.00 | 0.00 | 0.00 | 77 | 984.8 |
| 20260502212510 | 55 | 205 | 3.5 | 6.1 | 0.00 | 0.00 | 0.00 | 77 | 984.8 |